GFSFLT1_sfc_temp_159.txt.gz
Temp
89 90 94 94 93 91 90 90 93 92 88 85 86 86 85 85 86 89 88 88 87 92 94 96 87 90 92 91 90 89 90 90 90
88 89 90 93 94 93 90 91 92 91 89 86 87 88 86 85 86 86 89 86 89 85 90 90 92 82 91 92 88 91 90 91 90
88 88 88 91 93 93 92 93 93 92 91 88 88 90 89 88 87 86 88 86 83 86 84 90 89 88 91 91 88 90 89 89 91
89 88 88 89 90 93 94 93 91 91 90 86 89 90 88 89 89 89 88 89 89 88 89 86 90 88 89 86 88 88 88 88 87
87 88 88 89 89 90 90 91 90 89 91 91 91 90 87 88 85 90 90 88 89 89 88 90 89 88 87 88 89 89 86 86 89
85 85 86 87 88 87 87 88 88 87 86 88 87 89 87 88 86 84 89 90 89 89 89 88 90 88 88 88 88 88 87 87 88
85 84 82 85 83 80 80 82 84 78 85 86 81 85 89 83 89 86 85 90 90 90 89 88 88 88 89 89 88 89 89 89 88
83 83 83 82 80 79 79 78 81 82 82 83 84 79 84 83 87 86 84 81 87 90 89 89 88 87 88 88 89 92 88 88 88
83 83 83 81 79 80 75 78 78 80 80 80 79 80 83 83 84 84 85 85 84 85 85 86 86 87 87 86 90 80 75 82 89
83 83 84 82 81 79 75 69 75 75 78 79 77 78 78 82 81 82 83 84 83 82 81 82 83 85 86 86 87 73 71 71 89
84 85 84 83 82 79 79 77 69 70 72 72 73 73 71 75 79 80 82 81 80 81 79 79 81 82 84 84 86 67 67 70 85
88 87 86 85 84 81 79 78 77 72 70 68 72 67 68 74 73 79 79 78 79 80 78 78 79 80 80 80 81 64 65 69 84
88 85 85 79 82 82 81 80 80 76 72 70 69 68 69 69 71 74 76 77 78 76 78 75 71 70 74 68 75 59 62 65 83
86 80 81 80 79 75 74 79 80 77 77 77 77 77 73 70 69 70 71 72 74 75 74 70 70 70 69 70 65 67 57 57 74
84 82 82 84 81 81 81 81 79 77 75 77 79 79 77 75 72 71 72 74 74 72 70 70 67 64 62 63 64 56 57 56 58
83 83 83 86 83 80 80 78 78 76 74 74 74 72 70 67 67 67 68 67 67 66 66 65 63 62 60 60 61 61 56 56 57
83 83 81 83 82 79 77 78 74 75 75 74 72 68 68 67 64 67 69 71 71 70 68 67 66 67 66 63 61 60 61 61 61
83 81 81 81 79 78 76 74 70 72 71 72 67 66 70 72 72 68 64 64 65 71 62 60 67 69 69 67 66 63 52 56 60
82 80 80 78 78 77 77 71 74 71 71 70 67 62 66 72 75 75 72 67 65 48 48 45 44 46 59 63 51 47 45 46 47
75 81 80 79 78 77 77 72 71 72 70 69 68 67 70 74 73 76 72 71 69 67 56 46 45 44 45 47 48 45 45 46 47

GFSFLT1_sfc_temp_162.txt.gz
Temp
90 89 90 91 90 90 87 82 80 83 81 80 82 82 81 81 82 83 82 85 84 82 85 84 84 84 85 85 83 83 83 84 83
88 90 91 83 90 88 89 89 86 87 83 83 83 83 81 80 81 81 84 84 83 85 86 83 83 85 85 85 84 83 82 82 83
88 89 89 92 91 92 92 91 91 89 84 83 84 85 83 83 82 81 81 81 82 83 85 84 79 81 83 85 85 83 82 83 83
89 89 88 90 91 94 92 91 90 82 79 83 84 85 84 84 84 83 82 79 82 83 85 79 78 80 75 79 84 83 81 82 82
88 90 89 89 90 90 88 87 83 85 87 85 85 86 83 83 84 84 84 82 81 83 82 76 73 74 79 81 83 83 76 81 83
85 86 87 88 89 87 87 88 83 81 82 85 87 86 85 85 84 84 84 84 84 83 83 81 80 79 82 82 82 82 82 82 81
84 84 84 84 83 81 81 81 80 79 83 84 83 82 85 82 82 84 85 83 83 84 82 81 81 82 81 81 81 81 82 81 80
84 83 83 81 81 80 77 77 80 80 82 81 85 82 80 75 76 76 80 81 80 83 81 81 82 82 82 82 83 86 81 81 80
82 83 83 82 81 77 76 77 79 80 80 79 78 77 78 72 71 67 67 69 79 81 81 81 80 81 81 81 86 79 75 79 82
83 83 83 82 79 78 76 74 77 77 78 79 77 76 78 74 72 68 71 72 78 79 78 79 80 81 80 80 80 73 71 72 83
84 85 81 81 80 78 77 77 74 71 76 74 74 71 71 71 71 74 77 78 78 79 78 76 76 77 79 79 78 64 65 69 80
87 86 83 81 81 79 79 78 77 75 72 70 69 67 68 69 68 68 69 71 75 78 78 78 78 77 77 77 77 65 65 66 76
90 85 84 82 81 80 79 77 77 76 74 74 69 71 71 68 69 69 69 69 72 76 75 74 74 72 71 67 65 61 62 63 71
87 84 81 84 83 80 81 79 80 76 76 75 76 75 74 72 71 70 70 69 70 73 74 73 72 69 67 65 61 62 58 59 67
81 81 80 82 78 78 79 80 78 76 76 75 78 77 76 74 73 70 69 69 69 71 71 69 67 66 64 63 62 57 58 57 59
81 82 82 81 81 78 79 78 78 75 74 75 74 73 70 68 69 69 68 68 67 66 66 65 63 63 63 61 61 60 55 54 57
81 82 82 83 80 78 76 76 76 74 75 74 73 69 68 67 66 66 67 66 66 65 64 64 64 63 63 65 64 62 62 61 60
81 80 81 81 79 78 76 76 74 75 73 71 69 69 69 69 69 67 62 60 58 67 58 56 66 65 67 65 65 61 53 54 61
80 79 79 78 77 77 75 74 70 70 73 72 68 65 70 71 70 71 69 64 61 48 48 46 45 46 59 58 50 47 46 46 47
75 79 74 73 75 76 75 74 71 70 70 71 69 69 71 70 68 69 68 69 68 64 55 46 45 44 45 49 49 46 46 47 47

GFSFLT1_sfc_temp_165.txt.gz
Temp
75 72 73 71 74 75 76 76 71 74 72 74 77 77 75 74 74 74 74 75 75 76 76 76 78 78 79 78 78 78 77 77 76
73 75 75 75 78 78 76 76 73 73 74 73 75 78 77 74 76 74 74 76 76 76 76 82 80 79 77 78 77 76 77 75 76
73 76 79 78 80 80 76 75 75 74 73 71 77 79 78 78 78 75 74 74 74 76 76 75 74 76 76 76 77 77 76 76 76
77 78 79 79 79 79 81 79 79 76 73 73 76 76 79 79 78 77 76 74 74 75 75 74 75 74 74 74 74 76 74 77 76
77 78 78 79 79 78 78 75 77 79 78 79 79 81 75 78 79 78 77 76 74 74 73 73 73 72 72 72 71 74 74 76 78
74 76 77 76 74 72 73 75 76 77 76 77 81 77 78 75 78 78 78 78 77 74 74 73 74 71 71 72 71 73 74 74 75
74 74 75 72 70 70 70 71 72 73 75 80 77 77 76 75 74 76 78 79 78 78 76 74 73 71 72 74 74 75 75 75 74
75 74 73 72 70 68 69 69 71 73 73 73 75 74 73 71 71 72 73 72 74 77 75 76 76 75 74 75 76 80 75 75 74
73 73 74 73 70 71 68 69 70 72 73 73 72 72 70 71 70 70 69 69 68 69 72 72 73 74 74 73 81 76 74 74 73
74 74 74 72 70 69 67 67 68 69 70 72 71 69 69 69 68 69 69 69 67 67 69 72 73 73 73 73 74 72 67 70 75
75 75 72 72 70 68 67 67 66 67 69 68 67 66 68 68 67 68 68 68 67 67 70 71 71 72 72 73 68 64 64 66 70
75 74 72 71 69 69 68 67 67 66 65 65 65 65 65 66 67 65 65 65 65 66 69 71 70 71 71 71 64 62 63 65 68
77 76 74 72 70 69 68 68 68 66 65 64 64 65 65 66 67 65 65 66 66 67 69 69 69 68 67 64 64 62 62 63 67
76 75 74 73 71 68 68 69 71 68 67 66 68 68 68 67 67 67 67 67 67 67 68 68 66 64 63 60 61 59 58 58 64
74 71 72 72 69 69 70 71 71 71 69 69 69 68 67 67 67 67 67 66 67 66 67 66 64 63 61 61 58 56 55 57 58
72 71 71 72 69 68 68 68 70 68 68 69 67 66 65 66 66 66 67 66 65 64 65 64 63 62 61 60 60 58 56 55 57
71 72 69 70 69 66 65 66 67 67 68 67 66 64 64 64 64 64 64 64 64 64 63 62 62 61 61 61 60 59 60 59 59
69 69 69 68 67 65 64 65 65 66 68 67 66 65 65 61 62 62 57 52 51 56 52 52 62 61 62 62 60 55 52 54 59
69 67 68 67 67 65 64 65 64 65 66 66 64 63 65 64 63 61 59 58 55 48 47 46 45 47 55 53 49 47 46 46 47
69 69 68 66 65 65 65 64 63 65 66 65 65 64 63 64 64 65 63 61 60 54 51 47 45 44 46 49 48 46 47 47 46

GFSFLT1_sfc_temp_168.txt.gz
Temp
75 71 73 73 73 72 74 74 74 75 70 70 72 76 74 73 72 71 72 72 74 78 78 76 75 75 74 76 76 75 74 74 74
72 74 74 76 73 72 75 73 75 73 70 69 72 77 77 72 75 71 73 73 73 73 73 76 77 77 75 76 76 74 74 73 73
70 72 74 74 74 73 74 75 74 72 71 71 75 78 78 76 77 75 73 72 72 72 73 76 76 74 75 76 75 73 73 73 74
69 71 73 75 74 73 74 74 73 72 71 71 72 74 78 78 77 77 74 73 72 73 72 74 73 73 74 74 74 74 73 73 72
70 74 74 75 74 74 73 72 74 73 72 70 69 75 74 76 77 76 76 74 73 72 72 71 72 72 72 72 72 72 71 72 76
70 72 71 70 69 70 70 72 74 73 72 72 71 71 76 74 76 76 76 76 77 73 72 71 71 73 71 69 68 68 71 72 73
72 71 70 67 66 66 67 68 69 70 71 73 75 74 75 73 73 73 76 77 76 77 74 72 73 70 72 72 70 70 72 72 72
71 70 69 67 66 65 66 67 68 70 71 71 72 71 71 72 72 72 71 70 69 70 70 73 72 70 68 70 73 76 72 73 72
70 69 70 69 68 67 66 66 67 69 70 70 70 70 69 71 69 69 70 69 68 68 68 68 69 69 70 71 77 73 72 73 71
70 70 70 69 68 66 65 65 66 67 68 68 68 68 67 68 68 68 68 69 68 68 67 67 67 68 71 70 72 71 70 71 72
71 72 70 68 67 65 64 64 64 65 66 65 66 66 66 68 67 67 68 68 68 67 67 67 66 68 70 71 69 64 65 68 69
74 72 71 69 67 65 64 64 64 63 63 63 64 65 67 67 66 67 67 65 65 65 65 65 64 67 70 69 64 61 62 65 67
75 72 70 68 67 66 65 65 64 62 61 62 62 63 64 65 66 66 66 66 65 64 65 67 68 67 66 64 65 61 61 63 67
72 71 69 69 68 66 64 65 65 63 63 63 64 65 65 65 65 64 64 64 65 64 67 66 64 63 62 61 61 60 58 59 65
69 68 69 69 66 65 65 65 65 64 65 66 66 66 67 67 65 65 65 65 66 66 66 64 63 61 61 60 59 56 55 56 58
69 70 69 69 67 65 64 65 66 66 65 66 64 64 65 65 66 65 66 65 64 64 64 64 63 62 60 59 59 58 56 55 57
69 69 68 66 65 63 61 64 65 64 67 67 64 61 64 64 63 61 60 60 62 63 63 62 62 61 60 60 59 59 59 59 59
68 66 65 65 63 62 61 62 63 64 65 66 65 62 63 62 61 59 54 51 52 55 51 54 62 62 61 59 57 57 53 56 59
66 64 63 62 62 62 62 62 62 62 63 65 65 63 62 60 56 58 54 55 53 48 47 46 46 49 53 53 50 48 46 46 47
65 66 66 65 63 62 62 61 60 62 63 65 64 62 63 63 60 57 57 58 58 55 52 47 44 45 48 49 47 46 45 45 46

GFSFLT1_sfc_temp_171.txt.gz
Temp
73 71 74 73 72 73 75 74 74 77 73 73 73 73 72 72 71 70 70 70 70 73 76 76 77 74 73 74 74 73 73 71 72
69 72 73 74 74 74 75 75 77 75 72 71 72 75 72 71 71 70 71 71 71 73 73 75 74 74 74 74 74 74 72 70 71
67 71 72 73 74 73 75 74 75 74 70 69 72 73 75 75 74 73 72 70 71 71 72 73 72 73 73 73 75 74 72 71 71
67 68 71 73 72 72 74 71 71 71 70 68 69 70 75 76 74 74 73 72 71 72 72 72 73 73 72 73 75 75 71 71 71
68 70 71 71 71 71 70 69 70 69 70 69 70 74 72 75 75 75 73 73 72 72 71 71 72 72 72 72 73 73 72 72 73
69 70 68 68 69 68 68 70 71 70 71 70 70 70 72 72 73 75 75 75 76 72 72 71 71 71 70 71 71 72 72 72 71
68 68 67 65 65 65 65 67 67 68 69 69 68 67 68 70 72 72 72 72 72 72 72 71 69 70 70 70 69 69 70 71 70
68 67 66 65 64 64 65 66 67 69 69 69 69 68 67 69 71 72 71 71 69 69 69 70 70 69 68 69 69 72 67 69 70
68 67 67 67 65 65 65 66 67 68 69 69 69 69 70 71 71 70 70 71 70 69 68 68 68 69 68 68 70 69 67 70 71
69 68 68 66 65 64 64 65 65 65 66 67 67 68 69 69 68 69 68 69 69 70 69 68 67 67 68 68 70 68 68 70 70
69 70 68 66 64 64 63 63 63 64 64 65 66 66 66 67 67 66 66 68 68 69 69 69 67 66 67 68 69 66 65 68 70
72 71 69 67 65 64 63 63 63 62 62 63 66 66 67 67 68 67 67 67 67 66 65 65 64 65 66 67 68 61 61 64 67
71 70 67 65 64 63 62 62 61 61 61 62 61 62 64 65 65 66 66 65 65 65 66 66 66 67 66 66 65 60 60 62 66
69 69 67 66 66 65 63 62 61 60 60 61 63 63 64 64 64 63 63 64 65 65 66 65 63 62 61 61 61 59 58 60 65
67 66 65 67 65 64 63 63 62 61 62 64 65 66 67 66 64 65 65 65 63 63 65 64 62 61 60 60 59 58 57 58 59
67 67 67 67 65 62 63 63 64 63 64 64 64 63 64 65 65 65 65 65 65 64 65 63 61 61 59 59 59 58 56 55 58
67 67 66 66 64 62 62 63 64 64 65 64 64 63 62 64 62 60 60 61 62 63 63 62 62 60 59 59 59 59 59 58 58
67 67 66 66 63 62 61 62 62 63 63 63 63 63 61 61 60 58 55 51 52 56 53 53 60 61 59 59 58 58 54 56 59
66 65 64 63 61 61 60 61 61 62 62 62 62 61 61 59 57 53 55 55 53 49 47 46 46 47 54 54 50 48 47 46 47
64 65 64 63 62 61 61 60 60 61 61 62 64 62 61 57 55 54 53 54 55 54 52 47 45 44 47 47 46 44 43 44 46